Indianapolis, IN

1:57 AM EST on February 18, 2018 (GMT -0500)
Indianapolis Terry

Weather History for KTYQ - March, 2014

Change the Weather History Date:

Wednesday, March 5, 2014

  Actual Average (KEYE) Record (KEYE)
Temperature  
Mean Temperature 18 °F -  
Max Temperature 21 °F 42 °F 67 °F (2009)
Min Temperature 16 °F 26 °F 8 °F (2015)
Degree Days  
Heating Degree Days 47    
Moisture  
Dew Point 9 °F    
Average Humidity 67    
Maximum Humidity 75    
Minimum Humidity 58    
Precipitation  
Precipitation 0.00 in - - ()
Sea Level Pressure  
Sea Level Pressure 30.23 in    
Wind  
Wind Speed 5 mph (ENE)    
Max Wind Speed 12 mph    
Max Gust Speed -    
Visibility 10 miles    
Events      
Averages and records for this station are not official NWS values.
T = Trace of Precipitation, MM = Missing Value Source: NWS Daily Summary

Daily Weather History Graph

Daily Weather History Graph

Search for Another Location

Airport or City:

Trip Planner

Search our weather history database for the weather conditions in past years. The results will help you decide how hot, cold, wet, or windy it might be!

Date:

Astronomy

Mar. 05, 2014 Rise Set
Actual Time 7:12 AM EST 6:41 PM EST
Civil Twilight 6:45 AM EST 7:08 PM EST
Nautical Twilight 6:13 AM EST 7:39 PM EST
Astronomical Twilight 5:42 AM EST 8:11 PM EST
Moon 9:37 AM EST (3/5) 11:49 PM EST (3/5)
Length of Visible Light 12h 23m
Length of Day
11h 28m
Waxing Crescent, 23% of the Moon is Illuminated
Mar 5
Waxing Crescent
Mar 8
First Quarter
Mar 16
Full
Mar 23
Last Quarter
Mar 30
New

Hourly Weather History & Observations

Time (EST) Temp. Windchill Dew Point Humidity Pressure Visibility Wind Dir Wind Speed Gust Speed Precip Events Conditions
12:15 AM 19.8 °F 13.2 °F 11.8 °F 71% 30.20 in 10.0 mi NE 4.6 mph - N/A   Clear
12:35 AM 19.2 °F 12.5 °F 12.4 °F 75% 30.21 in 10.0 mi NE 4.6 mph - N/A   Clear
12:55 AM 19.6 °F 13.0 °F 12.4 °F 74% 30.20 in 10.0 mi ENE 4.6 mph - N/A   Clear
1:15 AM 19.8 °F 11.9 °F 11.5 °F 70% 30.20 in 10.0 mi ENE 5.8 mph - N/A   Clear
1:35 AM 20.1 °F 12.3 °F 10.8 °F 67% 30.19 in 10.0 mi ENE 5.8 mph - N/A   Clear
1:55 AM 19.9 °F 11.1 °F 10.2 °F 66% 30.20 in 10.0 mi ENE 6.9 mph - N/A   Clear
2:15 AM 19.9 °F 12.1 °F 9.5 °F 64% 30.20 in 10.0 mi ENE 5.8 mph - N/A   Clear
2:35 AM 19.6 °F 10.6 °F 9.5 °F 65% 30.20 in 10.0 mi ENE 6.9 mph - N/A   Clear
2:55 AM 19.2 °F 14.1 °F 9.1 °F 65% 30.20 in 10.0 mi ENE 3.5 mph - N/A   Clear
3:15 AM 18.7 °F 11.9 °F 9.0 °F 66% 30.21 in 10.0 mi NE 4.6 mph - N/A   Clear
3:35 AM 18.1 °F 12.9 °F 8.8 °F 67% 30.21 in 10.0 mi ENE 3.5 mph - N/A   Clear
3:55 AM 18.3 °F 13.1 °F 8.6 °F 66% 30.21 in 10.0 mi NE 3.5 mph - N/A   Clear
4:15 AM 18.3 °F 13.1 °F 8.6 °F 66% 30.22 in 10.0 mi NE 3.5 mph - N/A   Clear
4:35 AM 17.2 °F - 8.4 °F 68% 30.22 in 10.0 mi Calm Calm - N/A   Clear
4:55 AM 16.7 °F 11.2 °F 8.2 °F 69% 30.22 in 10.0 mi ENE 3.5 mph - N/A   Clear
5:15 AM 17.4 °F 12.1 °F 8.6 °F 68% 30.23 in 10.0 mi ENE 3.5 mph - N/A   Clear
5:35 AM 17.2 °F 10.2 °F 8.4 °F 68% 30.23 in 10.0 mi ENE 4.6 mph - N/A   Clear
5:55 AM 17.1 °F 8.7 °F 8.4 °F 69% 30.25 in 10.0 mi NE 5.8 mph - N/A   Scattered Clouds
6:15 AM 18.0 °F 9.8 °F 8.8 °F 67% 30.24 in 10.0 mi ESE 5.8 mph - N/A   Mostly Cloudy
6:35 AM 18.3 °F 13.1 °F 8.6 °F 66% 30.26 in 10.0 mi ENE 3.5 mph - N/A   Overcast
7:00 AM 16.7 °F 9.6 °F 7.7 °F 68% 30.28 in 10.0 mi NNE 4.6 mph - N/A   Scattered Clouds
7:15 AM 16.7 °F 8.3 °F 8.6 °F 70% 30.28 in 10.0 mi NE 5.8 mph - N/A   Clear
7:35 AM 17.4 °F 9.1 °F 8.4 °F 68% 30.27 in 10.0 mi ENE 5.8 mph - N/A   Scattered Clouds
7:55 AM 18.1 °F 10.0 °F 8.4 °F 66% 30.27 in 10.0 mi ENE 5.8 mph - N/A   Scattered Clouds
8:15 AM 19.2 °F 8.4 °F 8.8 °F 64% 30.27 in 10.0 mi ENE 9.2 mph - N/A   Clear
8:35 AM 20.8 °F 10.4 °F 9.5 °F 62% 30.28 in 10.0 mi East 9.2 mph - N/A   Clear
8:55 AM 21.2 °F 9.5 °F 8.6 °F 58% 30.29 in 10.0 mi ENE 11.5 mph - N/A   Clear